{"data":{"norad_id":68083,"intl_designator":"2026-042Q","name":"STARLINK-37065","alt_names":[],"object_type":"PAYLOAD","status":"ACTIVE","operator":null,"country":"US","launch_date":"2026-03-04","launch_site_code":"AFETR","launch_vehicle":null,"mission":null,"orbit_class":"UNKNOWN","rcs_meters":null,"size_class":null,"mass_kg":null,"dimensions":null,"purposes":["comms"],"wikipedia_slug":null,"has_3d_model":false,"image_url":null,"decayed_at":null,"tle_current":{"epoch":"2026-09-20T05:14:17.033280Z","epoch_age_seconds":79855,"freshness":"FRESH","line1":"1 68083U 26042Q   26263.21825270  .00014630  00000+0  44322-3 0  9996","line2":"2 68083  53.1600 351.2457 0002064  85.5297 274.5942 15.34405300 32145","mean_motion":15.344053,"eccentricity":0.0002064,"inclination_deg":53.16,"raan_deg":351.2457,"arg_perigee_deg":85.5297,"mean_anomaly_deg":274.5942,"bstar":0.00044322,"rev_number":3214,"period_min":93.847433921142,"perigee_km":461.2755413613,"apogee_km":464.09943370975,"semimajor_km":6840.8244875355,"source":"CELESTRAK","updated_at":"2026-09-20T09:00:43.780536Z"}}}